Time,TemperatureF,DewpointF,PressureIn,WindDirection,WindDirectionDegrees,WindSpeedMPH,WindSpeedGustMPH,Humidity,HourlyPrecipIn,Conditions,Clouds,dailyrainin,SoftwareType,DateUTC
2013-04-05 00:03:00,39.0,34.0,30.06,WSW,251,13.0,-999.0,83,-99.99,,,-99.99,,2013-04-05 04:03:00,
2013-04-05 00:13:00,39.0,34.0,30.06,WSW,251,13.0,-999.0,83,-99.99,,,-99.99,,2013-04-05 04:13:00,
2013-04-05 00:23:00,39.0,34.0,30.05,WSW,240,12.0,-999.0,82,-99.99,,,-99.99,,2013-04-05 04:23:00,
2013-04-05 00:33:00,39.0,34.0,30.04,SW,224,13.0,-999.0,81,-99.99,,,-99.99,,2013-04-05 04:33:00,
2013-04-05 00:42:00,39.0,34.0,30.04,SW,224,13.0,-999.0,81,-99.99,,,-99.99,,2013-04-05 04:42:00,
2013-04-05 00:52:00,39.0,34.0,30.03,SW,233,13.0,-999.0,82,-99.99,,,-99.99,,2013-04-05 04:52:00,
2013-04-05 01:02:00,39.0,34.0,30.02,SW,233,13.0,-999.0,82,-99.99,,,-99.99,,2013-04-05 05:02:00,
2013-04-05 01:13:00,39.0,34.0,30.02,SW,233,13.0,-999.0,82,-99.99,,,-99.99,,2013-04-05 05:13:00,
2013-04-05 01:22:00,39.0,34.0,30.01,SW,229,11.0,-999.0,82,-99.99,,,-99.99,,2013-04-05 05:22:00,
2013-04-05 01:32:00,39.0,34.0,30.01,SW,223,11.0,-999.0,83,-99.99,,,-99.99,,2013-04-05 05:32:00,
2013-04-05 01:42:00,39.0,34.0,30.01,SW,223,11.0,-999.0,83,-99.99,,,-99.99,,2013-04-05 05:42:00,
2013-04-05 01:53:00,39.0,35.0,30.00,WSW,242,11.0,-999.0,84,-99.99,,,-99.99,,2013-04-05 05:53:00,
2013-04-05 02:02:00,39.0,35.0,30.00,WSW,242,11.0,-999.0,84,-99.99,,,-99.99,,2013-04-05 06:02:00,
2013-04-05 02:12:00,39.0,35.0,30.00,WSW,242,11.0,-999.0,84,-99.99,,,-99.99,,2013-04-05 06:12:00,
2013-04-05 02:22:00,39.0,35.0,29.99,SW,215,10.0,-999.0,85,-99.99,,,-99.99,,2013-04-05 06:22:00,
2013-04-05 02:32:00,39.0,35.0,29.98,SW,234,10.0,-999.0,85,-99.99,,,-99.99,,2013-04-05 06:32:00,
2013-04-05 02:42:00,39.0,35.0,29.98,SW,234,10.0,-999.0,85,-99.99,,,-99.99,,2013-04-05 06:42:00,
2013-04-05 02:52:00,40.0,36.0,29.98,SW,229,9.0,-999.0,85,-99.99,,,-99.99,,2013-04-05 06:52:00,
2013-04-05 03:03:00,40.0,36.0,29.97,WSW,245,7.0,-999.0,85,-99.99,,,-99.99,,2013-04-05 07:03:00,
2013-04-05 03:12:00,40.0,36.0,29.97,WSW,245,7.0,-999.0,85,-99.99,,,-99.99,,2013-04-05 07:12:00,
2013-04-05 03:22:00,40.0,36.0,29.96,SW,219,9.0,-999.0,86,-99.99,,,-99.99,,2013-04-05 07:22:00,
2013-04-05 03:32:00,40.0,36.0,29.96,WSW,250,7.0,-999.0,86,-99.99,,,-99.99,,2013-04-05 07:32:00,
2013-04-05 03:42:00,40.0,36.0,29.96,WSW,250,7.0,-999.0,86,-99.99,,,-99.99,,2013-04-05 07:42:00,
2013-04-05 03:52:00,40.0,36.0,29.96,WSW,243,8.0,-999.0,86,-99.99,,,-99.99,,2013-04-05 07:52:00,
2013-04-05 04:02:00,40.0,36.0,29.95,West,264,8.0,-999.0,87,-99.99,,,-99.99,,2013-04-05 08:02:00,
2013-04-05 04:13:00,40.0,36.0,29.95,West,264,8.0,-999.0,87,-99.99,,,-99.99,,2013-04-05 08:13:00,
2013-04-05 04:22:00,40.0,36.0,29.95,WSW,240,8.0,-999.0,86,-99.99,,,-99.99,,2013-04-05 08:22:00,
2013-04-05 04:32:00,40.0,36.0,29.95,WSW,244,7.0,-999.0,86,-99.99,,,-99.99,,2013-04-05 08:32:00,
2013-04-05 04:43:00,40.0,36.0,29.95,WSW,244,7.0,-999.0,86,-99.99,,,-99.99,,2013-04-05 08:43:00,
2013-04-05 04:52:00,40.0,36.0,29.94,WSW,248,7.0,-999.0,86,-99.99,,,-99.99,,2013-04-05 08:52:00,
2013-04-05 05:02:00,40.0,36.0,29.93,WSW,255,7.0,-999.0,86,-99.99,,,-99.99,,2013-04-05 09:02:00,
2013-04-05 05:12:00,40.0,36.0,29.93,WSW,255,7.0,-999.0,86,-99.99,,,-99.99,,2013-04-05 09:12:00,
2013-04-05 05:22:00,40.0,36.0,29.92,West,259,6.0,-999.0,86,-99.99,,,-99.99,,2013-04-05 09:22:00,
2013-04-05 05:33:00,40.0,36.0,29.92,WSW,250,6.0,-999.0,87,-99.99,,,-99.99,,2013-04-05 09:33:00,
2013-04-05 05:43:00,40.0,36.0,29.92,WSW,250,6.0,-999.0,87,-99.99,,,-99.99,,2013-04-05 09:43:00,
2013-04-05 05:52:00,40.0,38.0,29.91,WSW,245,4.0,-999.0,92,-99.99,,,-99.99,,2013-04-05 09:52:00,
2013-04-05 06:03:00,40.0,38.0,29.91,WSW,245,4.0,-999.0,92,-99.99,,,-99.99,,2013-04-05 10:03:00,
2013-04-05 06:13:00,40.0,38.0,29.91,WSW,245,4.0,-999.0,92,-99.99,,,-99.99,,2013-04-05 10:13:00,
2013-04-05 06:23:00,40.0,38.0,29.91,WSW,245,4.0,-999.0,92,-99.99,,,-99.99,,2013-04-05 10:23:00,
2013-04-05 06:33:00,40.0,38.0,29.91,WSW,245,4.0,-999.0,92,-99.99,,,-99.99,,2013-04-05 10:33:00,
2013-04-05 06:53:00,40.0,37.0,29.91,SW,235,5.0,-999.0,89,-99.99,,,-99.99,,2013-04-05 10:53:00,
2013-04-05 07:03:00,40.0,37.0,29.91,SW,224,5.0,-999.0,89,-99.99,,,-99.99,,2013-04-05 11:03:00,
2013-04-05 07:13:00,40.0,37.0,29.91,SW,224,5.0,-999.0,89,-99.99,,,-99.99,,2013-04-05 11:13:00,
2013-04-05 07:22:00,40.0,37.0,29.91,SW,231,6.0,-999.0,90,-99.99,,,-99.99,,2013-04-05 11:22:00,
2013-04-05 07:33:00,40.0,37.0,29.89,SW,221,5.0,-999.0,90,-99.99,,,-99.99,,2013-04-05 11:33:00,
2013-04-05 07:42:00,40.0,37.0,29.89,SW,221,5.0,-999.0,90,-99.99,,,-99.99,,2013-04-05 11:42:00,
2013-04-05 07:52:00,40.0,38.0,29.89,WSW,241,6.0,-999.0,91,-99.99,,,-99.99,,2013-04-05 11:52:00,
2013-04-05 08:02:00,40.0,38.0,29.89,SW,229,6.0,-999.0,91,-99.99,,,-99.99,,2013-04-05 12:02:00,
2013-04-05 08:12:00,40.0,38.0,29.89,SW,229,6.0,-999.0,91,-99.99,,,-99.99,,2013-04-05 12:12:00,
2013-04-05 08:22:00,40.0,38.0,29.88,SW,226,5.0,-999.0,91,-99.99,,,-99.99,,2013-04-05 12:22:00,
2013-04-05 08:32:00,40.0,38.0,29.86,SW,226,3.0,-999.0,92,-99.99,,,-99.99,,2013-04-05 12:32:00,
2013-04-05 08:42:00,40.0,38.0,29.86,SW,226,3.0,-999.0,92,-99.99,,,-99.99,,2013-04-05 12:42:00,
2013-04-05 08:52:00,40.0,38.0,29.87,SW,232,5.0,-999.0,92,-99.99,,,-99.99,,2013-04-05 12:52:00,
2013-04-05 09:02:00,40.0,38.0,29.87,WSW,240,3.0,-999.0,92,-99.99,,,-99.99,,2013-04-05 13:02:00,
2013-04-05 09:12:00,40.0,38.0,29.87,WSW,240,3.0,-999.0,92,-99.99,,,-99.99,,2013-04-05 13:12:00,
2013-04-05 09:23:00,40.0,38.0,29.86,SW,224,4.0,-999.0,93,-99.99,,,-99.99,,2013-04-05 13:23:00,
2013-04-05 09:32:00,39.0,37.0,29.85,SW,229,4.0,-999.0,93,-99.99,,,-99.99,,2013-04-05 13:32:00,
2013-04-05 09:42:00,39.0,37.0,29.85,SW,229,4.0,-999.0,93,-99.99,,,-99.99,,2013-04-05 13:42:00,
2013-04-05 09:52:00,39.0,37.0,29.84,SW,229,1.0,-999.0,93,-99.99,,,-99.99,,2013-04-05 13:52:00,
2013-04-05 10:03:00,39.0,37.0,29.83,SW,229,2.0,-999.0,93,-99.99,,,-99.99,,2013-04-05 14:03:00,
2013-04-05 10:12:00,39.0,37.0,29.83,SW,229,2.0,-999.0,93,-99.99,,,-99.99,,2013-04-05 14:12:00,
2013-04-05 10:23:00,40.0,38.0,29.83,SW,229,0.0,-999.0,93,-99.99,,,-99.99,,2013-04-05 14:23:00,
2013-04-05 10:37:00,40.0,38.0,29.81,SW,231,2.0,-999.0,94,-99.99,,,-99.99,,2013-04-05 14:37:00,
2013-04-05 10:43:00,40.0,38.0,29.81,SW,231,2.0,-999.0,94,-99.99,,,-99.99,,2013-04-05 14:43:00,
2013-04-05 10:52:00,40.0,38.0,29.81,SW,231,1.0,-999.0,94,-99.99,,,-99.99,,2013-04-05 14:52:00,
2013-04-05 11:02:00,41.0,39.0,29.80,SW,231,0.0,-999.0,94,-99.99,,,-99.99,,2013-04-05 15:02:00,
2013-04-05 11:13:00,41.0,39.0,29.80,SW,231,0.0,-999.0,94,-99.99,,,-99.99,,2013-04-05 15:13:00,
2013-04-05 11:23:00,41.0,39.0,29.80,SW,231,1.0,-999.0,94,-99.99,,,-99.99,,2013-04-05 15:23:00,
2013-04-05 11:33:00,42.0,40.0,29.79,SW,231,0.0,-999.0,94,-99.99,,,-99.99,,2013-04-05 15:33:00,
2013-04-05 11:43:00,42.0,40.0,29.79,SW,231,0.0,-999.0,94,-99.99,,,-99.99,,2013-04-05 15:43:00,
2013-04-05 11:53:00,42.0,40.0,29.78,WNW,285,2.0,-999.0,94,-99.99,,,-99.99,,2013-04-05 15:53:00,
2013-04-05 12:03:00,42.0,40.0,29.77,WNW,288,3.0,-999.0,94,-99.99,,,-99.99,,2013-04-05 16:03:00,
2013-04-05 12:14:00,42.0,40.0,29.77,WNW,288,3.0,-999.0,94,-99.99,,,-99.99,,2013-04-05 16:14:00,
2013-04-05 12:23:00,43.0,41.0,29.75,North,359,4.0,-999.0,94,-99.99,,,-99.99,,2013-04-05 16:23:00,
2013-04-05 12:33:00,45.0,44.0,29.73,North,0,5.0,-999.0,95,-99.99,,,-99.99,,2013-04-05 16:33:00,
2013-04-05 12:43:00,45.0,44.0,29.73,North,0,5.0,-999.0,95,-99.99,,,-99.99,,2013-04-05 16:43:00,
2013-04-05 12:52:00,46.0,44.0,29.72,North,1,5.0,-999.0,94,-99.99,,,-99.99,,2013-04-05 16:52:00,
2013-04-05 13:13:00,47.0,44.0,29.71,NE,37,5.0,-999.0,90,-99.99,,,-99.99,,2013-04-05 17:13:00,
2013-04-05 13:23:00,48.0,43.0,29.70,NNE,15,7.0,-999.0,84,-99.99,,,-99.99,,2013-04-05 17:23:00,
2013-04-05 13:33:00,48.0,43.0,29.70,NNE,15,7.0,-999.0,84,-99.99,,,-99.99,,2013-04-05 17:33:00,
2013-04-05 13:45:00,48.0,43.0,29.70,NNE,15,7.0,-999.0,84,-99.99,,,-99.99,,2013-04-05 17:45:00,
2013-04-05 13:52:00,48.0,42.0,29.68,NNE,24,9.0,-999.0,79,-99.99,,,-99.99,,2013-04-05 17:52:00,
2013-04-05 14:03:00,50.0,42.0,29.69,NW,312,5.0,-999.0,75,-99.99,,,-99.99,,2013-04-05 18:03:00,
2013-04-05 14:13:00,50.0,42.0,29.69,NW,312,5.0,-999.0,75,-99.99,,,-99.99,,2013-04-05 18:13:00,
2013-04-05 14:23:00,51.0,42.0,29.67,NW,311,7.0,-999.0,71,-99.99,,,-99.99,,2013-04-05 18:23:00,
2013-04-05 14:33:00,51.0,41.0,29.66,NNW,336,7.0,-999.0,68,-99.99,,,-99.99,,2013-04-05 18:33:00,
2013-04-05 14:43:00,51.0,41.0,29.66,NNW,336,7.0,-999.0,68,-99.99,,,-99.99,,2013-04-05 18:43:00,
2013-04-05 14:51:00,54.0,33.0,29.63,NW,323,6.0,-999.0,45,-99.99,,,-99.99,,2013-04-05 18:51:00,
2013-04-05 14:52:00,53.0,41.0,29.66,NW,309,5.0,-999.0,63,-99.99,,,-99.99,,2013-04-05 18:52:00,
2013-04-05 15:02:00,54.0,34.0,29.64,NNW,340,5.0,-999.0,46,-99.99,,,-99.99,,2013-04-05 19:02:00,
2013-04-05 15:13:00,54.0,34.0,29.64,NNW,340,5.0,-999.0,46,-99.99,,,-99.99,,2013-04-05 19:13:00,
2013-04-05 15:23:00,54.0,33.0,29.63,NW,323,6.0,-999.0,45,-99.99,,,-99.99,,2013-04-05 19:23:00,
2013-04-05 15:33:00,54.0,33.0,29.63,NW,323,6.0,-999.0,45,-99.99,,,-99.99,,2013-04-05 19:33:00,
2013-04-05 15:42:00,54.0,33.0,29.63,NW,323,6.0,-999.0,45,-99.99,,,-99.99,,2013-04-05 19:42:00,
2013-04-05 16:22:00,48.0,40.0,29.61,South,182,7.0,-999.0,74,-99.99,,,-99.99,,2013-04-05 20:22:00,
2013-04-05 16:33:00,48.0,40.0,29.61,South,182,7.0,-999.0,74,-99.99,,,-99.99,,2013-04-05 20:33:00,
2013-04-05 16:43:00,48.0,40.0,29.61,South,182,7.0,-999.0,74,-99.99,,,-99.99,,2013-04-05 20:43:00,
2013-04-05 16:52:00,45.0,40.0,29.61,SSW,206,7.0,-999.0,82,-99.99,,,-99.99,,2013-04-05 20:52:00,
2013-04-05 17:03:00,45.0,40.0,29.62,WSW,238,7.0,-999.0,84,-99.99,,,-99.99,,2013-04-05 21:03:00,
2013-04-05 17:13:00,45.0,40.0,29.62,WSW,238,7.0,-999.0,84,-99.99,,,-99.99,,2013-04-05 21:13:00,
2013-04-05 17:24:00,45.0,40.0,29.62,SW,224,6.0,-999.0,84,-99.99,,,-99.99,,2013-04-05 21:24:00,
2013-04-05 17:34:00,45.0,40.0,29.63,SW,226,8.0,-999.0,83,-99.99,,,-99.99,,2013-04-05 21:34:00,
2013-04-05 17:44:00,45.0,40.0,29.63,SW,226,8.0,-999.0,83,-99.99,,,-99.99,,2013-04-05 21:44:00,
2013-04-05 17:53:00,45.0,41.0,29.63,SW,227,9.0,-999.0,85,-99.99,,,-99.99,,2013-04-05 21:53:00,
2013-04-05 18:03:00,45.0,41.0,29.64,WSW,248,10.0,-999.0,85,-99.99,,,-99.99,,2013-04-05 22:03:00,
2013-04-05 18:13:00,45.0,41.0,29.64,WSW,248,10.0,-999.0,85,-99.99,,,-99.99,,2013-04-05 22:13:00,
2013-04-05 18:23:00,46.0,41.0,29.64,West,262,9.0,-999.0,84,-99.99,,,-99.99,,2013-04-05 22:23:00,
2013-04-05 18:33:00,46.0,41.0,29.65,SW,231,11.0,-999.0,82,-99.99,,,-99.99,,2013-04-05 22:33:00,
2013-04-05 18:43:00,46.0,41.0,29.65,SW,231,11.0,-999.0,82,-99.99,,,-99.99,,2013-04-05 22:43:00,
2013-04-05 18:52:00,45.0,40.0,29.66,WSW,252,10.0,-999.0,83,-99.99,,,-99.99,,2013-04-05 22:52:00,
2013-04-05 19:03:00,45.0,40.0,29.67,West,259,9.0,-999.0,83,-99.99,,,-99.99,,2013-04-05 23:03:00,
2013-04-05 19:13:00,45.0,40.0,29.67,West,259,9.0,-999.0,83,-99.99,,,-99.99,,2013-04-05 23:13:00,
2013-04-05 19:23:00,45.0,40.0,29.67,WSW,240,6.0,-999.0,82,-99.99,,,-99.99,,2013-04-05 23:23:00,
2013-04-05 19:33:00,44.0,38.0,29.67,West,262,7.0,-999.0,80,-99.99,,,-99.99,,2013-04-05 23:33:00,
2013-04-05 19:42:00,44.0,38.0,29.67,West,262,7.0,-999.0,80,-99.99,,,-99.99,,2013-04-05 23:42:00,
2013-04-05 19:52:00,43.0,38.0,29.68,West,259,5.0,-999.0,82,-99.99,,,-99.99,,2013-04-05 23:52:00,
2013-04-05 20:03:00,43.0,38.0,29.70,West,263,4.0,-999.0,83,-99.99,,,-99.99,,2013-04-06 00:03:00,
2013-04-05 20:13:00,43.0,38.0,29.70,West,263,4.0,-999.0,83,-99.99,,,-99.99,,2013-04-06 00:13:00,
2013-04-05 20:23:00,42.0,37.0,29.71,West,263,3.0,-999.0,83,-99.99,,,-99.99,,2013-04-06 00:23:00,
2013-04-05 20:33:00,42.0,35.0,29.72,NNW,328,6.0,-999.0,77,-99.99,,,-99.99,,2013-04-06 00:33:00,
2013-04-05 20:42:00,42.0,35.0,29.72,NNW,328,6.0,-999.0,77,-99.99,,,-99.99,,2013-04-06 00:42:00,
2013-04-05 20:52:00,47.0,30.0,29.73,NW,321,11.0,-999.0,52,-99.99,,,-99.99,,2013-04-06 00:52:00,
2013-04-05 21:02:00,48.0,29.0,29.74,North,0,9.0,-999.0,47,-99.99,,,-99.99,,2013-04-06 01:02:00,
2013-04-05 21:13:00,48.0,29.0,29.74,North,0,9.0,-999.0,47,-99.99,,,-99.99,,2013-04-06 01:13:00,
2013-04-05 21:23:00,48.0,28.0,29.75,North,350,11.0,-999.0,45,-99.99,,,-99.99,,2013-04-06 01:23:00,
2013-04-05 21:33:00,48.0,26.0,29.76,NNW,332,15.0,-999.0,42,-99.99,,,-99.99,,2013-04-06 01:33:00,
2013-04-05 21:43:00,48.0,26.0,29.76,NNW,332,15.0,-999.0,42,-99.99,,,-99.99,,2013-04-06 01:43:00,
2013-04-05 21:52:00,48.0,27.0,29.78,NW,313,14.0,-999.0,43,-99.99,,,-99.99,,2013-04-06 01:52:00,
2013-04-05 22:02:00,46.0,26.0,29.78,NNW,335,13.0,-999.0,45,-99.99,,,-99.99,,2013-04-06 02:02:00,
2013-04-05 22:12:00,46.0,26.0,29.78,NNW,335,13.0,-999.0,45,-99.99,,,-99.99,,2013-04-06 02:12:00,
2013-04-05 22:23:00,46.0,26.0,29.80,NNW,342,15.0,-999.0,45,-99.99,,,-99.99,,2013-04-06 02:23:00,
2013-04-05 22:33:00,45.0,27.0,29.80,NNW,328,13.0,-999.0,48,-99.99,,,-99.99,,2013-04-06 02:33:00,
2013-04-05 22:43:00,45.0,27.0,29.80,NNW,328,13.0,-999.0,48,-99.99,,,-99.99,,2013-04-06 02:43:00,
2013-04-05 22:52:00,45.0,27.0,29.80,NNW,328,13.0,-999.0,48,-99.99,,,-99.99,,2013-04-06 02:52:00,
2013-04-05 23:03:00,44.0,25.0,29.81,NNW,333,14.0,-999.0,47,-99.99,,,-99.99,,2013-04-06 03:03:00,
2013-04-05 23:13:00,44.0,25.0,29.81,NNW,333,14.0,-999.0,47,-99.99,,,-99.99,,2013-04-06 03:13:00,
2013-04-05 23:23:00,43.0,24.0,29.82,NNW,346,13.0,-999.0,47,-99.99,,,-99.99,,2013-04-06 03:23:00,
2013-04-05 23:34:00,43.0,24.0,29.82,NNW,344,13.0,-999.0,47,-99.99,,,-99.99,,2013-04-06 03:34:00,
2013-04-05 23:43:00,43.0,24.0,29.82,NNW,344,13.0,-999.0,47,-99.99,,,-99.99,,2013-04-06 03:43:00,
2013-04-05 23:53:00,42.0,24.0,29.83,NW,319,14.0,-999.0,48,-99.99,,,-99.99,,2013-04-06 03:53:00,